UA1ZBE-13 Weather Reports


Display with metric or nautical units.
time (UTC)temp
F
wind
direction
speed
MPH
gust
MPH
rain 1hr
in
rain 24hr
in
rain mn
in
humidity
%
barometer
mb
20260503044454 36 0.0 0.0 0.00 0.00 0.00 978.6
20260503043454 36 0.0 0.0 0.00 0.00 0.00 978.5
20260503042454 35 0.0 0.0 0.00 0.00 0.00 978.5
20260503041453 35 0.0 0.0 0.00 0.00 0.00 978.5
20260503040453 35 0.0 0.0 0.00 0.00 0.00 978.4
20260503035453 35 0.0 0.0 0.00 0.00 0.00 978.4
20260503034453 35 0.0 0.0 0.00 0.00 0.00 978.4
20260503033452 35 0.0 0.0 0.00 0.00 0.00 978.3
20260503032452 34 0.0 0.0 0.00 0.00 0.00 978.3
20260503031452 34 0.0 0.0 0.00 0.00 0.00 978.2
20260503030452 34 0.0 0.0 0.00 0.00 0.00 978.2
20260503025451 33 0.0 0.0 0.00 0.00 0.00 978.1
20260503024451 33 0.0 0.0 0.00 0.00 0.00 978.0
20260503023451 33 0.0 0.0 0.00 0.00 0.00 978.0
20260503022451 33 0.0 0.0 0.00 0.00 0.00 978.0
20260503021451 33 0.0 0.0 0.00 0.00 0.00 977.9
20260503020450 33 0.0 0.0 0.00 0.00 0.00 977.8
20260503015450 33 0.0 0.0 0.00 0.00 0.00 977.7
20260503014450 33 0.0 0.0 0.00 0.00 0.00 977.8
20260503013450 33 0.0 0.0 0.00 0.00 0.00 977.6
20260503012450 33 0.0 0.0 0.00 0.00 0.00 977.5
20260503011449 33 0.0 0.0 0.00 0.00 0.00 977.5
20260503010449 33 0.0 0.0 0.00 0.00 0.00 977.6
20260503005449 33 0.0 0.0 0.00 0.00 0.00 977.7
20260503004449 33 0.0 0.0 0.00 0.00 0.00 977.5
20260503003449 34 0.0 0.0 0.00 0.00 0.00 977.5
20260503002448 34 0.0 0.0 0.00 0.00 0.00 977.6
20260503001448 34 0.0 0.0 0.00 0.00 0.00 977.5
20260503000448 34 0.0 0.0 0.00 0.00 0.00 977.5
20260502235448 35 0.0 0.0 0.00 0.00 0.00 977.5
20260502234448 35 0.0 0.0 0.00 0.00 0.00 977.5
20260502233447 35 0.0 0.0 0.00 0.00 0.00 977.4
20260502232447 35 0.0 0.0 0.00 0.00 0.00 977.3
20260502231447 35 0.0 0.0 0.00 0.00 0.00 977.2
20260502230447 36 0.0 0.0 0.00 0.00 0.00 977.2
20260502225446 36 0.0 0.0 0.00 0.00 0.00 977.2
20260502224447 36 0.0 0.0 0.00 0.00 0.00 977.0
20260502223446 36 0.0 0.0 0.00 0.00 0.00 977.2
20260502222446 36 0.0 0.0 0.00 0.00 0.00 977.1
20260502221446 37 0.0 0.0 0.00 0.00 0.00 977.0
20260502220445 37 0.0 0.0 0.00 0.00 0.00 977.0
20260502215445 37 0.0 0.0 0.00 0.00 0.00 977.0
20260502214445 38 0.0 0.0 0.00 0.00 0.00 976.9
20260502213445 38 0.0 0.0 0.00 0.00 0.00 976.8
20260502212444 38 0.0 0.0 0.00 0.00 0.00 976.6
20260502211444 39 0.0 0.0 0.00 0.00 0.00 976.6
20260502210444 39 0.0 0.0 0.00 0.00 0.00 976.4
20260502205444 39 0.0 0.0 0.00 0.00 0.00 976.5
20260502204443 40 0.0 0.0 0.00 0.00 0.00 976.5
20260502203443 40 0.0 0.0 0.00 0.00 0.00 976.4
20260502202443 40 0.0 0.0 0.00 0.00 0.00 976.4
20260502201443 40 0.0 0.0 0.00 0.00 0.00 976.2
20260502200443 41 0.0 0.0 0.00 0.00 0.00 976.3
20260502195442 41 0.0 0.0 0.00 0.00 0.00 976.1
20260502194442 41 0.0 0.0 0.00 0.00 0.00 976.0
20260502193442 42 0.0 0.0 0.00 0.00 0.00 976.0
20260502192442 42 0.0 0.0 0.00 0.00 0.00 975.8
20260502191442 42 0.0 0.0 0.00 0.00 0.00 975.6
20260502190441 43 0.0 0.0 0.00 0.00 0.00 975.6
20260502185441 44 0.0 0.0 0.00 0.00 0.00 975.5
20260502184441 44 0.0 0.0 0.00 0.00 0.00 975.4
20260502183441 45 0.0 0.0 0.00 0.00 0.00 975.3
20260502182440 46 0.0 0.0 0.00 0.00 0.00 975.2
20260502181440 46 0.0 0.0 0.00 0.00 0.00 975.0
20260502180440 47 0.0 0.0 0.00 0.00 0.00 974.8
20260502170439 53 0.0 0.0 0.00 0.00 0.00 974.4
20260502163438 50 0.0 0.0 0.00 0.00 0.00 974.3
20260502162438 51 0.0 0.0 0.00 0.00 0.00 974.1
20260502161438 44 0.0 0.0 0.00 0.00 0.00 974.0
20260502160437 44 0.0 0.0 0.00 0.00 0.00 974.3
20260502151436 57 0.0 0.0 0.00 0.00 0.00 973.5
20260502150436 58 0.0 0.0 0.00 0.00 0.00 973.5
20260502130433 57 0.0 0.0 0.00 0.00 0.00 974.0
20260502123433 57 0.0 0.0 0.00 0.00 0.00 974.1
20260502122432 55 0.0 0.0 0.00 0.00 0.00 974.2
20260502121432 56 0.0 0.0 0.00 0.00 0.00 974.6
20260502120432 57 0.0 0.0 0.00 0.00 0.00 974.9
20260502115432 59 0.0 0.0 0.00 0.00 0.00 975.1
20260502114432 58 0.0 0.0 0.00 0.00 0.00 974.9
20260502113431 60 0.0 0.0 0.00 0.00 0.00 974.9
20260502112431 59 0.0 0.0 0.00 0.00 0.00 975.0
20260502111431 58 0.0 0.0 0.00 0.00 0.00 975.0
20260502110431 56 0.0 0.0 0.00 0.00 0.00 975.2
20260502105430 57 0.0 0.0 0.00 0.00 0.00 975.4
20260502104430 58 0.0 0.0 0.00 0.00 0.00 975.5
20260502103430 57 0.0 0.0 0.00 0.00 0.00 975.7
20260502102430 56 0.0 0.0 0.00 0.00 0.00 975.8
20260502101430 56 0.0 0.0 0.00 0.00 0.00 976.1
20260502100429 56 0.0 0.0 0.00 0.00 0.00 976.1
20260502091428 54 0.0 0.0 0.00 0.00 0.00 976.5
20260502090428 51 0.0 0.0 0.00 0.00 0.00 976.7
20260502071425 48 0.0 0.0 0.00 0.00 0.00 977.9
20260502070425 47 0.0 0.0 0.00 0.00 0.00 978.0
20260502065425 47 0.0 0.0 0.00 0.00 0.00 978.2
20260502064425 47 0.0 0.0 0.00 0.00 0.00 978.4
20260502063425 47 0.0 0.0 0.00 0.00 0.00 978.4
20260502062424 47 0.0 0.0 0.00 0.00 0.00 978.5
20260502061424 47 0.0 0.0 0.00 0.00 0.00 978.6
20260502060424 46 0.0 0.0 0.00 0.00 0.00 978.6
20260502055424 46 0.0 0.0 0.00 0.00 0.00 978.8
20260502054423 45 0.0 0.0 0.00 0.00 0.00 979.0
20260502053423 44 0.0 0.0 0.00 0.00 0.00 979.2
20260502052423 43 0.0 0.0 0.00 0.00 0.00 979.2
20260502051423 43 0.0 0.0 0.00 0.00 0.00 979.4
20260502050422 42 0.0 0.0 0.00 0.00 0.00 979.5
20260502045422 42 0.0 0.0 0.00 0.00 0.00 979.6